Location: Amsterdam
(30.7274°N, 84.4357°W)
Time: 21:45:24
(UTC+00:00)

Explorer 11/Cluster Stage 4 - Pass Details

Date: 20 February 2026
Orbit: 463 x 1176 km, 28.8° (Epoch: 9 March)

Event Time Altitude Azimuth Distance (km) Brightness Sun altitude
Rises 20:52:05 0° 272° (W) 2,632 10.0 30.1°
Reaches altitude 10° 20:54:28 10° 266° (W) 1,679 9.3 29.6°
Maximum altitude 20:58:04 44° 193° (SSW) 647 7.2 29.0°
Drops below altitude 10° 21:01:30 10° 119° (ESE) 1,596 8.0 28.4°
Sets 21:03:42 0° 113° (ESE) 2,483 8.9 28.0°
